Regional Weather Roundup
Issued by NWS

Home | Current Version | Previous Version | Text Only | Print | Product List | Glossary On
Versions: 1 2 3 4 5 6 7 8 9 10 11 12 13 14 15 16 17 18 19 20 21 22 23 24 25 26 27 28 29 30 31 32 33 34 35 36 37 38 39 40 41 42 43 44 45 46 47 48 49 50
547
ASUS44 KLIX 161810
RWRLA
LOUISIANA WEATHER ROUNDUP
NATIONAL WEATHER SERVICE NEW ORLEANS LA
100 PM CDT WED APR 16 2014

NOTE: "FAIR" INDICATES FEW OR NO CLOUDS BELOW 12,000 FEET WITH NO
      SIGNIFICANT WEATHER AND/OR OBSTRUCTIONS TO VISIBILITY.
      SKY/WX - SKY CONDITION AND SIGNIFICANT WEATHER.
      TMP - AIR TEMPERATURE.    DP   - DEWPOINT TEMPERATURE.
      RH  - RELATIVE HUMIDITY.  PRES - PRESSURE.
      HX  - HEAT INDEX.         WCI  - WIND CHILL INDEX.

*  THESE STATIONS ARE NOT NWS OR FAA STATIONS AND ARE NOT UNDER
   NWS QUALITY CONTROL.

LAZ040-048-061>063-065-066-069-161900-
SOUTHEAST LOUISIANA

CITY           SKY/WX    TMP DP  RH WIND       PRES   REMARKS
N.O. AUDUBON     N/A     62  42  48 MISG        N/A
6HR MIN TEMP:  47; 6HR MAX TEMP:  62;

N.O. INTL ARPT FAIR      61  42  49 VRB7      30.21F
6HR MIN TEMP:  47; 6HR MAX TEMP:  61;

N.O. LAKEFRONT FAIR      58  41  53 NE8       30.22F
6HR MIN TEMP:  48; 6HR MAX TEMP:  58;

N.O. DOWNTOWN* FAIR      59  37  44 NE7       30.22F
6HR MIN TEMP:  46; 6HR MAX TEMP:  61;

SLIDELL        FAIR      60  33  36 W5        30.20F
6HR MIN TEMP:  41; 6HR MAX TEMP:  60;

BATON ROUGE    FAIR      62  37  39 SE6       30.22F
6HR MIN TEMP:  37; 6HR MAX TEMP:  62;

BOOTHVILLE     FAIR      59  46  62 NE10      30.20F
6HR MIN TEMP:  54; 6HR MAX TEMP:  60;

BELLE CHASSE   FAIR      60  41  49 VRB6      30.20F
6HR MIN TEMP:  45; 6HR MAX TEMP:  61;

BOGALUSA*        N/A     60  31  33 SW6       30.23F
6HR MIN TEMP:  37; 6HR MAX TEMP:  60;

GALLIANO*      NOT AVBL
NEW ROADS*     NOT AVBL
GONZALES*      FAIR      60  37  42 CALM      30.21F
6HR MIN TEMP:  38; 6HR MAX TEMP:  60;

HAMMOND*       NOT AVBL
HOUMA*         MOSUNNY   63  41  45 NE12      30.21F
PORT FOURCHON* CLOUDY    61  45  55 E7G13     30.21F

$$

LAZ041-044-053-054-161900-
SOUTHWEST LOUISIANA

CITY           SKY/WX    TMP DP  RH WIND       PRES   REMARKS
LAKE CHARLES   FAIR      59  38  45 S6        30.19F
6HR MIN TEMP:  37; 6HR MAX TEMP:  60;

LAFAYETTE      FAIR      60  41  49 VRB6      30.19F
6HR MIN TEMP:  39; 6HR MAX TEMP:  61;

PATTERSON      FAIR      63  43  48 E8        30.22F
6HR MIN TEMP:  43; 6HR MAX TEMP:  63;

SALT POINT       N/A     63  43  48 SE9G17    30.19F
6HR MIN TEMP:  44; 6HR MAX TEMP:  64;

NEW IBERIA     FAIR      62  41  46 VRB7      30.20F
6HR MIN TEMP:  42; 6HR MAX TEMP:  63;

CHENAULT AIRPK SUNNY     61  39  44 S8        30.21F

$$

LAZ027-028-161900-
CENTRAL LOUISIANA

CITY           SKY/WX    TMP DP  RH WIND       PRES   REMARKS
FORT POLK      FAIR      58  32  37 S6        30.19F
6HR MIN TEMP:  35; 6HR MAX TEMP:  59;

ALEXANDRIA INT FAIR      58  34  40 VRB5      30.20F
6HR MIN TEMP:  37; 6HR MAX TEMP:  59;

ALEXANDRIA     FAIR      61  30  31 S8        30.21F
6HR MIN TEMP:  34; 6HR MAX TEMP:  61;


$$

LAZ001-002-161900-
NORTHWEST LOUISIANA

CITY           SKY/WX    TMP DP  RH WIND       PRES   REMARKS
SHREVEPORT     PTSUNNY   60  30  32 SE13      30.17F
6HR MIN TEMP:  38; 6HR MAX TEMP:  60;

BARKSDALE AFB  FAIR      58  32  37 SE10      30.18F
6HR MIN TEMP:  36; 6HR MAX TEMP:  58;

DTN SHREVEPORT FAIR      58  35  42 S10G17    30.18F
6HR MIN TEMP:  40; 6HR MAX TEMP:  58;


$$

LAZ014-016-161900-
NORTHEAST LOUISIANA

CITY           SKY/WX    TMP DP  RH WIND       PRES   REMARKS
MONROE         FAIR      57  34  41 S6        30.23F
6HR MIN TEMP:  36; 6HR MAX TEMP:  57;

TALLULAH       FAIR      54  32  43 VRB3      30.23F
6HR MIN TEMP:  42; 6HR MAX TEMP:  55;


$$




USA.gov is the U.S. government's official web portal to all federal, state and local government web resources and services.